Akbas, Turkey

11:18 AM +03 on February 25, 2017 (GMT +0300)
Cardak Air Base

Weather History for LTAY - October, 2012

Change the Weather History Date:

Wednesday, October 3, 2012

  Actual Average Record
Temperature  
Mean Temperature 63 °F -  
Max Temperature 80 °F - - ()
Min Temperature 46 °F - - ()
Degree Days  
Heating Degree Days 2    
Growing Degree Days 13 (Base 50)    
Moisture  
Dew Point 47 °F    
Average Humidity 60    
Maximum Humidity 94    
Minimum Humidity 24    
Precipitation  
Precipitation 0.00 in - - ()
Sea Level Pressure  
Sea Level Pressure 30.06 in    
Wind  
Wind Speed 3 mph ()    
Max Wind Speed 16 mph    
Max Gust Speed 28 mph    
Visibility 6.2 miles    
Events Thunderstorm    
T = Trace of Precipitation, MM = Missing Value Source: Averaged Metar Reports

Daily Weather History Graph

Daily Weather History Graph

Search for Another Location

Airport or City:

Trip Planner

Search our weather history database for the weather conditions in past years. The results will help you decide how hot, cold, wet, or windy it might be!

Date:

Astronomy

Oct. 03, 2012 Rise Set
Actual Time 6:58 AM EEST 6:40 PM EEST
Civil Twilight 6:32 AM EEST 7:07 PM EEST
Nautical Twilight 6:02 AM EEST 7:37 PM EEST
Astronomical Twilight 5:31 AM EEST 8:08 PM EEST
Moon 8:24 PM EEST (10/3) 9:59 AM EEST (10/3)
Length of Visible Light 12h 34m
Length of Day
11h 42m
Waning Gibbous, 90% of the Moon is Illuminated
Oct 3
Waning Gibbous
Oct 8
Last Quarter
Oct 15
New
Oct 22
First Quarter
Oct 29
Full

Hourly Weather History & Observations

Time (EEST) Temp. Windchill Dew Point Humidity Pressure Visibility Wind Dir Wind Speed Gust Speed Precip Events Conditions
12:50 AM 57.2 °F - 48.2 °F 72% 30.12 in 6.2 mi Calm Calm - N/A   Scattered Clouds
1:50 AM 55.4 °F - 50.0 °F 82% 30.09 in 6.2 mi Calm Calm - N/A   Scattered Clouds
2:50 AM 55.4 °F - 48.2 °F 77% 30.09 in 6.2 mi Calm Calm - N/A   Scattered Clouds
3:50 AM 51.8 °F - 46.4 °F 82% 30.09 in 6.2 mi Calm Calm - N/A   Partly Cloudy
4:50 AM 48.2 °F - 42.8 °F 82% 30.06 in 6.2 mi Calm Calm - N/A   Partly Cloudy
5:50 AM 48.2 °F - 42.8 °F 82% 30.06 in 6.2 mi Calm Calm - N/A   Partly Cloudy
6:50 AM 46.4 °F 44.3 °F 42.8 °F 87% 30.06 in - ESE 4.6 mph - N/A   Clear
7:50 AM 51.8 °F - 50.0 °F 94% 30.09 in - ESE 5.8 mph - N/A   Clear
8:50 AM 60.8 °F - 51.8 °F 72% 30.09 in - Calm Calm - N/A   Clear
9:50 AM 64.4 °F - 51.8 °F 64% 30.09 in - Variable 1.2 mph - N/A   Clear
10:50 AM 68.0 °F - 50.0 °F 52% 30.09 in - East 5.8 mph - N/A   Clear
11:50 AM 73.4 °F - 46.4 °F 38% 30.06 in - Variable 1.2 mph - N/A   Clear
12:50 PM 77.0 °F - 46.4 °F 34% 30.06 in 6.2 mi ENE 8.1 mph - N/A   Partly Cloudy
1:50 PM 78.8 °F - 46.4 °F 32% 30.04 in 6.2 mi ENE 8.1 mph - N/A   Partly Cloudy
2:50 PM 80.6 °F - 41.0 °F 24% 30.04 in 6.2 mi West 8.1 mph - N/A   Partly Cloudy
3:50 PM 78.8 °F - 42.8 °F 28% 30.01 in 6.2 mi WNW 11.5 mph - N/A   Partly Cloudy
5:50 PM 77.0 °F - 44.6 °F 32% 30.01 in 6.2 mi WNW 12.7 mph - N/A   Scattered Clouds
7:50 PM 69.8 °F - 46.4 °F 43% 30.04 in 6.2 mi NNW 5.8 mph - N/A   Scattered Clouds
8:50 PM 68.0 °F - 46.4 °F 46% 30.06 in 6.2 mi ENE 16.1 mph 27.6 mph N/A Thunderstorm Thunderstorm
9:50 PM 64.4 °F - 50.0 °F 59% 30.06 in 6.2 mi ESE 9.2 mph - N/A   Scattered Clouds
10:50 PM 59.0 °F - 48.2 °F 67% 30.06 in 6.2 mi Calm Calm - N/A   Scattered Clouds
11:50 PM 59.0 °F - 48.2 °F 67% 30.06 in 6.2 mi NW 3.5 mph - N/A   Scattered Clouds